Tracking 19563 objects as of 20-Mar-2019
HD Live streaming from Space Station
objects crossing your sky now

COSMOS 1566

Track COSMOS 1566 now!
10-day predictions
COSMOS 1566 is classified as:


NORAD ID: 15005
Int'l Code: 1984-052H
Perigee: 1,400.6 km
Apogee: 1,481.6 km
Inclination: 74.0 °
Period: 114.5 minutes
Semi major axis: 7812 km
RCS: 0.7134 m2 (medium)
Launch date: May 28, 1984
Source: Commonwealth of Independent States (former USSR) (CIS)
Launch site: PLESETSK MISSILE AND SPACE COMPLEX (PKMTR)
aabbcc
Your satellite tracking list
Your tracking list is empty




NASA's NSSDC Master Catalog

Two Line Element Set (TLE):
1 15005U 84052H   19078.75109745 -.00000020 +00000-0 -24108-4 0  9996
2 15005 074.0160 000.9404 0051859 198.5512 188.0769 12.57335785597474
Source of the keplerian elements: AFSPC